Tracking 26258 objects as of 3-Oct-2022
HD Live streaming from Space Station
objects crossing your sky now

STARLINK-4519

Track STARLINK-4519 now!
10-day predictions
STARLINK-4519 is classified as:


NORAD ID: 53439
Int'l Code: 2022-097BD
Perigee: 354.5 km
Apogee: 359.4 km
Inclination: 53.2 °
Period: 91.5 minutes
Semi major axis: 6727 km
RCS: Unknown
Launch date: August 10, 2022
Source: United States (US)
Launch site: AIR FORCE EASTERN TEST RANGE (AFETR)
aabbcc
Your satellite tracking list
Your tracking list is empty




NASA's NSSDC Master Catalog

Two Line Element Set (TLE):
1 53439U 22097BD  22275.91667824  .00056995  00000-0  40801-3 0  9995
2 53439  53.2170 342.1652 0003581  16.3324 242.1102 15.73180093  1306
Source of the keplerian elements: AFSPC